Miscellaneous Local Product
Issued by NWS North Platte, NE

Home | Current Version | Previous Version | Graphics & Text | Print | Product List | Glossary On
Versions: 1 2 3 4 5 6 7 8 9 10 11 12 13 14 15 16 17 18 19 20 21 22 23 24 25 26 27 28 29 30 31 32 33 34 35 36 37 38 39 40 41 42 43 44 45 46 47 48 49 50
000
AXUS43 KLBF 271410
MISLBF


WESTERN AND NORTH CENTRAL NEBRASKA HOURLY WEATHER ROUNDUP
NATIONAL WEATHER SERVICE NORTH PLATTE NE
900 AM CDT TUE JUN 27 2017

NOTE: "FAIR" INDICATES FEW OR NO CLOUDS BELOW 12,000 FEET WITH NO
SIGNIFICANT WEATHER AND/OR OBSTRUCTIONS TO VISIBILITY.

NOTE: STATIONS NOT REPORTING VARIABLES SUCH AS SKY/WEATHER OR
PRESSURE ARE PROVIDED BY RAWS AND APRS NETWORKS AND ARE NOT UNDER
NATIONAL WEATHER SERVICE QUALITY CONTROL.

...OBSERVATIONS IN AND NEAR THE EASTERN PANHANDLE OF NEBRASKA...

CITY           SKY/WX    TMP DP  RH WIND       PRES   REMARKS
PINE RIDGE     PTSUNNY   67  59  75 S26G37    29.84R
GORDON         CLOUDY    65  57  77 S29G36    29.89F
CHADRON        MOSUNNY   68  55  63 S23G33    29.84S
ALLIANCE       CLOUDY    61  56  83 S23G37    29.91F
SIDNEY         PTSUNNY   62  57  83 S18G26    29.96F
CRESCENT LAKE    N/A     66  58  75 S13G23      N/A
$$

...OBSERVATIONS IN NORTHERN NEBRASKA AND FAR SOUTHERN SOUTH DAKOTA...

CITY           SKY/WX    TMP DP  RH WIND       PRES   REMARKS
WINNER         FAIR      69  54  58 S25G37    29.91F
VALENTINE      PTSUNNY   68  54  60 S28G37    29.93F
THEDFORD       SUNNY     66  56  70 S20G26    29.98F
AINSWORTH      SUNNY     64  55  70 S25G31    29.96F
O`NEILL        SUNNY     61  55  81 S16G22    30.03F
ORD            SUNNY     65  53  65 SE12G21   30.01F
BROKEN BOW     SUNNY     64  55  72 S22G28    30.00F
VALENTINE NWR    N/A     62  56  81 S20G30      N/A
HALSEY           N/A     63  56  77 S9G17       N/A
BUTTE            N/A     62  52  71 S18G31      N/A
CHAMBERS         N/A     68  56  66 S7          N/A
EWING            N/A     62  55  78 S10G17      N/A
$$

...OBSERVATIONS IN SOUTHWEST NEBRASKA AND FAR NORTHEAST COLORADO...

CITY           SKY/WX    TMP DP  RH WIND       PRES   REMARKS
WRAY           CLOUDY    59  59 100 SE13      29.98F FOG
IMPERIAL       CLOUDY    62  57  83 S13       29.99F
OGALLALA       CLOUDY    65  58  78 S14G22    29.97F
NORTH PLATTE   CLOUDY    64  59  83 SE15G26   29.99F
MCCOOK         CLOUDY    62  60  93 SE10      29.99F
LEXINGTON      SUNNY     65  57  75 SE16G22   30.01F
STAPLETON        N/A     61  57  85 CALM        N/A
GOTHENBURG       N/A     61  55  79 SE9         N/A
CALLAWAY         N/A     61  57  88 S21         N/A
$$

...OBSERVATIONS IN CENTRAL LINCOLN COUNTY AREA...

CITY           SKY/WX    TMP DP  RH WIND       PRES   REMARKS
N.P. AIRPORT   CLOUDY    64  59  83 SE15G26   29.99F
N.P. DOWNTOWN    N/A     63  58  84 CALM        N/A
N.P. SOUTHEAST   N/A     62  58  86 S8G18       N/A
N.P. HILLCREST   N/A     62  58  88 S14G21      N/A
$$

...SOME OBSERVATIONS FROM AROUND THE REGION...

CITY           SKY/WX    TMP DP  RH WIND       PRES   REMARKS
DENVER         CLOUDY    68  50  52 SW3       29.98F
LIMON          SUNNY     66  53  63 SE13      30.05F
ASPEN          CLOUDY    66  36  32 SE6       30.20F
LARAMIE        CLOUDY    66  39  37 S9        30.08S
CASPER         MOSUNNY   76  41  28 SW10      29.88S
CHEYENNE       SUNNY     63  53  70 SW9       30.01F
SCOTTSBLUFF    MOSUNNY   68  57  68 S14       29.91F
GRAND ISLAND   SUNNY     64  57  78 SE12G23   30.05F
OMAHA          MOSUNNY   65  53  65 SE8       30.11S
SIOUX FALLS    PTSUNNY   63  48  58 S15       30.05F
PIERRE         SUNNY     65  51  60 S18       29.86F
RAPID CITY     SUNNY     69  55  60 S28G33    29.77F
BISMARCK       CLOUDY    64  45  49 S20       29.78F
KANSAS CITY    MOSUNNY   66  60  81 SE16      30.12S
HILL CITY      CLOUDY    64  63  96 SE13      30.00F FOG
WICHITA        CLOUDY    67  64  90 E12       30.05R
DODGE CITY     SUNNY     74  65  73 S18       30.00S
OKLAHOMA CITY  CLOUDY    75  66  73 S9        30.06S
DALLAS         MOSUNNY   81  73  76 CALM      30.02S
AMARILLO       SUNNY     73  63  70 SW15      30.12S
$$




USA.gov is the U.S. government's official web portal to all federal, state and local government web resources and services.